Location: Sulphur Springs (historical)
(38.1246°N, 122.1900°W)
Time: 05:41:33
(UTC+00:00)

Cosmos 44 Rocket - Pass Details

Date: 29 October 2020
Orbit: 642 x 748 km, 65.1° (Epoch: 29 November)

Event Time Altitude Azimuth Distance (km) Brightness Sun altitude
Exits shadow 12:10:27 35° 163° (SSE) 1,190 4.5 -28.4°
Drops below altitude 10° 12:13:25 10° 157° (SSE) 2,256 6.1 -27.8°
Sets 12:15:48 0° 156° (SSE) 3,175 7.0 -27.3°
